Wetterdaten: Freitag, 06.07.2012
Datum Zeit Temperatur Luftfeuchte Regen Wind Richtung Richtung Taupunkt Windchill Windben
06.07.2012 00:00 14,4 C 94 % 0,0 l/m 0,0 km/h (0 Bft) W 270 13,4 C 14,4 C 0,0 km/h (0 Bft)
06.07.2012 00:05 14,4 C 94 % 0,0 l/m 0,2 km/h (0 Bft) W 270 13,4 C 14,4 C 1,8 km/h (1 Bft)
06.07.2012 00:10 14,4 C 94 % 0,0 l/m 0,2 km/h (0 Bft) S-SW 202 13,4 C 14,4 C 2,7 km/h (1 Bft)
06.07.2012 00:15 14,4 C 94 % 0,0 l/m 0,5 km/h (0 Bft) W-SW 247 13,4 C 14,4 C 1,6 km/h (1 Bft)
06.07.2012 00:20 14,4 C 94 % 0,0 l/m 0,6 km/h (0 Bft) NW 315 13,4 C 14,4 C 3,2 km/h (1 Bft)
06.07.2012 00:25 14,3 C 94 % 0,0 l/m 0,6 km/h (0 Bft) S 180 13,3 C 14,5 C 0,0 km/h (0 Bft)
06.07.2012 00:30 14,3 C 94 % 0,0 l/m 0,3 km/h (0 Bft) S-SO 157 13,3 C 14,4 C 0,0 km/h (0 Bft)
06.07.2012 00:35 14,3 C 94 % 0,0 l/m 0,2 km/h (0 Bft) N 360 13,3 C 14,4 C 3,1 km/h (1 Bft)
06.07.2012 00:40 14,3 C 94 % 0,0 l/m 0,3 km/h (0 Bft) N 360 13,3 C 14,3 C 3,9 km/h (1 Bft)
06.07.2012 00:45 14,2 C 94 % 0,0 l/m 0,3 km/h (0 Bft) N 360 13,2 C 14,2 C 0,0 km/h (0 Bft)
06.07.2012 00:50 14,1 C 94 % 0,0 l/m 0,2 km/h (0 Bft) W-SW 247 13,1 C 14,1 C 2,1 km/h (1 Bft)
06.07.2012 00:55 14,1 C 94 % 0,0 l/m 0,3 km/h (0 Bft) N-NO 22 13,1 C 14,1 C 0,0 km/h (0 Bft)
06.07.2012 01:00 14,2 C 94 % 0,0 l/m 0,3 km/h (0 Bft) N-NW 337 13,2 C 14,1 C 0,0 km/h (0 Bft)
06.07.2012 01:05 14,1 C 94 % 0,0 l/m 0,5 km/h (0 Bft) NO 45 13,1 C 14,1 C 2,7 km/h (1 Bft)
06.07.2012 01:10 14,1 C 94 % 0,0 l/m 0,6 km/h (0 Bft) NO 45 13,1 C 14,1 C 0,0 km/h (0 Bft)
06.07.2012 01:15 14,1 C 94 % 0,0 l/m 0,6 km/h (0 Bft) N-NO 22 13,1 C 14,1 C 0,0 km/h (0 Bft)
06.07.2012 01:20 14,1 C 94 % 0,0 l/m 0,3 km/h (0 Bft) N 360 13,1 C 14,0 C 1,6 km/h (1 Bft)
06.07.2012 01:25 13,9 C 94 % 0,0 l/m 0,2 km/h (0 Bft) N-NO 22 12,9 C 14,0 C 0,0 km/h (0 Bft)
06.07.2012 01:30 14,0 C 94 % 0,0 l/m 0,2 km/h (0 Bft) N 360 13,0 C 13,9 C 0,0 km/h (0 Bft)
06.07.2012 01:35 14,0 C 94 % 0,0 l/m 0,0 km/h (0 Bft) N 360 13,0 C 13,9 C 1,6 km/h (1 Bft)
06.07.2012 01:40 14,1 C 94 % 0,0 l/m 0,2 km/h (0 Bft) N 360 13,1 C 14,0 C 0,0 km/h (0 Bft)
06.07.2012 01:45 14,2 C 94 % 0,0 l/m 0,2 km/h (0 Bft) NO 45 13,2 C 14,0 C 0,0 km/h (0 Bft)
06.07.2012 01:50 14,1 C 94 % 0,0 l/m 0,0 km/h (0 Bft) N-NO 22 13,1 C 14,0 C 0,0 km/h (0 Bft)
06.07.2012 01:55 14,1 C 94 % 0,0 l/m 0,0 km/h (0 Bft) N 360 13,1 C 14,0 C 0,0 km/h (0 Bft)
06.07.2012 02:00 14,1 C 94 % 0,0 l/m 0,0 km/h (0 Bft) N 360 13,1 C 14,0 C 0,0 km/h (0 Bft)
06.07.2012 02:05 13,9 C 94 % 0,0 l/m 0,2 km/h (0 Bft) N-NO 22 12,9 C 13,9 C 0,0 km/h (0 Bft)
06.07.2012 02:10 13,9 C 94 % 0,0 l/m 0,5 km/h (0 Bft) N-NO 22 12,9 C 13,8 C 2,6 km/h (1 Bft)
06.07.2012 02:15 13,9 C 94 % 0,0 l/m 0,3 km/h (0 Bft) NO 45 12,9 C 13,8 C 0,0 km/h (0 Bft)
06.07.2012 02:20 13,8 C 94 % 0,0 l/m 0,2 km/h (0 Bft) N 360 12,9 C 13,8 C 0,0 km/h (0 Bft)
06.07.2012 02:25 13,7 C 94 % 0,0 l/m 0,0 km/h (0 Bft) N 360 12,8 C 13,7 C 0,0 km/h (0 Bft)
06.07.2012 02:30 13,7 C 94 % 0,0 l/m 0,3 km/h (0 Bft) N 360 12,8 C 13,6 C 2,1 km/h (1 Bft)
06.07.2012 02:35 13,7 C 94 % 0,0 l/m 0,6 km/h (0 Bft) N 360 12,8 C 13,6 C 2,6 km/h (1 Bft)
06.07.2012 02:40 13,7 C 94 % 0,0 l/m 0,8 km/h (0 Bft) NO 45 12,8 C 13,7 C 0,0 km/h (0 Bft)
06.07.2012 02:45 13,7 C 94 % 0,0 l/m 0,8 km/h (0 Bft) W-NW 292 12,8 C 13,7 C 0,0 km/h (0 Bft)
06.07.2012 02:50 13,7 C 94 % 0,0 l/m 0,2 km/h (0 Bft) N-NO 22 12,8 C 13,6 C 0,0 km/h (0 Bft)
06.07.2012 02:55 13,7 C 94 % 0,0 l/m 0,0 km/h (0 Bft) N-NO 22 12,8 C 13,6 C 0,0 km/h (0 Bft)
06.07.2012 03:00 13,8 C 94 % 0,0 l/m 0,2 km/h (0 Bft) N-NO 22 12,9 C 13,6 C 0,0 km/h (0 Bft)
06.07.2012 03:05 13,7 C 94 % 0,0 l/m 0,2 km/h (0 Bft) NO 45 12,8 C 13,6 C 0,0 km/h (0 Bft)
06.07.2012 03:10 13,8 C 94 % 0,0 l/m 0,3 km/h (0 Bft) N-NO 22 12,9 C 13,6 C 0,0 km/h (0 Bft)
06.07.2012 03:16 13,5 C 94 % 0,0 l/m 0,6 km/h (0 Bft) O-SO 112 12,6 C 13,5 C 2,1 km/h (1 Bft)
06.07.2012 03:20 13,5 C 94 % 0,0 l/m 0,6 km/h (0 Bft) O-SO 112 12,6 C 13,5 C 2,1 km/h (1 Bft)
06.07.2012 03:25 13,4 C 94 % 0,0 l/m 0,6 km/h (0 Bft) NO 45 12,5 C 13,5 C 0,0 km/h (0 Bft)
06.07.2012 03:30 13,3 C 94 % 0,0 l/m 0,2 km/h (0 Bft) NO 45 12,4 C 13,2 C 0,0 km/h (0 Bft)
06.07.2012 03:35 13,3 C 94 % 0,0 l/m 0,0 km/h (0 Bft) NO 45 12,4 C 13,1 C 0,0 km/h (0 Bft)
06.07.2012 03:40 13,2 C 94 % 0,0 l/m 0,3 km/h (0 Bft) O-SO 112 12,3 C 13,1 C 1,6 km/h (1 Bft)
06.07.2012 03:45 13,1 C 94 % 0,0 l/m 0,6 km/h (0 Bft) NW 315 12,2 C 13,1 C 0,0 km/h (0 Bft)
06.07.2012 03:50 12,9 C 95 % 0,0 l/m 0,3 km/h (0 Bft) N 360 12,1 C 12,8 C 0,0 km/h (0 Bft)
06.07.2012 03:55 13,1 C 94 % 0,0 l/m 0,0 km/h (0 Bft) NO 45 12,2 C 12,8 C 0,0 km/h (0 Bft)
06.07.2012 04:00 12,8 C 95 % 0,0 l/m 0,2 km/h (0 Bft) N-NO 22 12,0 C 12,7 C 0,0 km/h (0 Bft)
06.07.2012 04:05 12,8 C 95 % 0,0 l/m 0,0 km/h (0 Bft) W-NW 292 12,0 C 12,7 C 0,0 km/h (0 Bft)
06.07.2012 04:10 12,7 C 95 % 0,0 l/m 0,0 km/h (0 Bft) N 360 11,9 C 12,5 C 0,0 km/h (0 Bft)
06.07.2012 04:16 12,5 C 95 % 0,0 l/m 0,0 km/h (0 Bft) W-NW 292 11,7 C 12,3 C 0,0 km/h (0 Bft)
06.07.2012 04:17 12,3 C 95 % 0,0 l/m 0,0 km/h (0 Bft) N-NO 22 11,5 C 12,2 C 0,0 km/h (0 Bft)
06.07.2012 04:22 12,4 C 95 % 0,0 l/m 0,0 km/h (0 Bft) N-NO 22 11,6 C 12,1 C 0,0 km/h (0 Bft)
06.07.2012 04:27 12,3 C 95 % 0,0 l/m 0,3 km/h (0 Bft) S 180 11,5 C 12,0 C 2,3 km/h (1 Bft)
06.07.2012 04:32 12,1 C 95 % 0,0 l/m 0,3 km/h (0 Bft) NO 45 11,3 C 11,8 C 0,0 km/h (0 Bft)
06.07.2012 04:37 12,3 C 95 % 0,0 l/m 0,2 km/h (0 Bft) N-NO 22 11,5 C 11,9 C 0,0 km/h (0 Bft)
06.07.2012 04:42 12,0 C 95 % 0,0 l/m 0,2 km/h (0 Bft) O-SO 112 11,2 C 11,8 C 2,6 km/h (1 Bft)
06.07.2012 04:47 11,8 C 95 % 0,0 l/m 0,3 km/h (0 Bft) N-NO 22 11,0 C 11,8 C 0,0 km/h (0 Bft)
06.07.2012 04:52 11,6 C 95 % 0,0 l/m 0,3 km/h (0 Bft) N-NO 22 10,8 C 11,6 C 0,0 km/h (0 Bft)
06.07.2012 04:57 11,7 C 95 % 0,0 l/m 0,2 km/h (0 Bft) O-SO 112 10,9 C 11,6 C 3,1 km/h (1 Bft)
06.07.2012 05:02 11,8 C 95 % 0,0 l/m 0,3 km/h (0 Bft) S 180 11,0 C 11,8 C 0,0 km/h (0 Bft)
06.07.2012 05:07 11,9 C 95 % 0,0 l/m 0,3 km/h (0 Bft) N-NW 337 11,1 C 11,8 C 0,0 km/h (0 Bft)
06.07.2012 05:12 12,0 C 95 % 0,0 l/m 0,5 km/h (0 Bft) W-NW 292 11,2 C 11,8 C 0,0 km/h (0 Bft)
06.07.2012 05:17 11,8 C 95 % 0,0 l/m 0,5 km/h (0 Bft) N 360 11,0 C 11,8 C 0,0 km/h (0 Bft)
06.07.2012 05:22 11,8 C 95 % 0,0 l/m 0,0 km/h (0 Bft) N-NO 22 11,0 C 11,6 C 0,0 km/h (0 Bft)
06.07.2012 05:27 12,1 C 95 % 0,0 l/m 0,0 km/h (0 Bft) N 360 11,3 C 11,7 C 0,0 km/h (0 Bft)
06.07.2012 05:32 12,0 C 95 % 0,0 l/m 0,0 km/h (0 Bft) W-NW 292 11,2 C 11,7 C 0,0 km/h (0 Bft)
06.07.2012 05:37 12,0 C 95 % 0,0 l/m 0,3 km/h (0 Bft) S-SO 157 11,2 C 11,7 C 2,1 km/h (1 Bft)
06.07.2012 05:42 12,2 C 95 % 0,0 l/m 0,5 km/h (0 Bft) N-NW 337 11,4 C 12,0 C 0,0 km/h (0 Bft)
06.07.2012 05:47 12,2 C 95 % 0,0 l/m 0,5 km/h (0 Bft) O-SO 112 11,4 C 12,0 C 1,8 km/h (1 Bft)
06.07.2012 05:52 12,9 C 95 % 0,0 l/m 1,9 km/h (1 Bft) SO 135 12,1 C 12,6 C 9,2 km/h (2 Bft)
06.07.2012 05:57 13,4 C 94 % 0,0 l/m 4,2 km/h (1 Bft) SO 135 12,5 C 13,4 C 8,5 km/h (2 Bft)
06.07.2012 06:02 13,9 C 94 % 0,0 l/m 6,6 km/h (2 Bft) SO 135 12,9 C 14,1 C 6,3 km/h (2 Bft)
06.07.2012 06:07 14,2 C 94 % 0,0 l/m 6,8 km/h (2 Bft) O 90 13,2 C 14,5 C 7,7 km/h (2 Bft)
06.07.2012 06:12 14,4 C 94 % 0,0 l/m 6,1 km/h (2 Bft) SO 135 13,4 C 15,0 C 11,1 km/h (2 Bft)
06.07.2012 06:17 14,5 C 94 % 0,0 l/m 5,8 km/h (2 Bft) O-SO 112 13,5 C 15,2 C 4,5 km/h (1 Bft)
06.07.2012 06:22 14,3 C 94 % 0,0 l/m 5,8 km/h (2 Bft) O-SO 112 13,3 C 14,7 C 8,4 km/h (2 Bft)
06.07.2012 06:27 14,3 C 94 % 0,0 l/m 6,3 km/h (2 Bft) O 90 13,3 C 14,5 C 12,6 km/h (3 Bft)
06.07.2012 06:32 14,4 C 94 % 0,0 l/m 5,5 km/h (1 Bft) SO 135 13,4 C 14,5 C 12,9 km/h (3 Bft)
06.07.2012 06:37 14,4 C 94 % 0,0 l/m 4,7 km/h (1 Bft) N-NO 22 13,4 C 14,6 C 1,8 km/h (1 Bft)
06.07.2012 06:42 14,6 C 94 % 0,0 l/m 5,3 km/h (1 Bft) S-SO 157 13,6 C 14,6 C 6,8 km/h (2 Bft)
06.07.2012 06:47 14,6 C 94 % 0,0 l/m 4,0 km/h (1 Bft) S-SO 157 13,6 C 14,8 C 0,0 km/h (0 Bft)
06.07.2012 06:52 14,9 C 94 % 0,0 l/m 2,1 km/h (1 Bft) O-SO 112 13,9 C 14,9 C 4,0 km/h (1 Bft)
06.07.2012 06:57 15,0 C 94 % 0,0 l/m 2,9 km/h (1 Bft) O-NO 67 14,0 C 15,0 C 10,3 km/h (2 Bft)
06.07.2012 07:02 15,1 C 94 % 0,0 l/m 5,5 km/h (1 Bft) O-SO 112 14,1 C 15,2 C 6,3 km/h (2 Bft)
06.07.2012 07:07 15,2 C 94 % 0,0 l/m 5,0 km/h (1 Bft) SO 135 14,2 C 15,3 C 3,1 km/h (1 Bft)
06.07.2012 07:12 15,3 C 94 % 0,0 l/m 3,5 km/h (1 Bft) O-NO 67 14,3 C 15,5 C 2,1 km/h (1 Bft)
06.07.2012 07:17 15,4 C 94 % 0,0 l/m 3,2 km/h (1 Bft) NW 315 14,4 C 15,7 C 3,1 km/h (1 Bft)
06.07.2012 07:22 15,5 C 94 % 0,0 l/m 2,3 km/h (1 Bft) O-SO 112 14,5 C 15,9 C 3,2 km/h (1 Bft)
06.07.2012 07:27 15,5 C 94 % 0,0 l/m 2,3 km/h (1 Bft) O 90 14,5 C 16,0 C 3,9 km/h (1 Bft)
06.07.2012 07:32 15,6 C 94 % 0,0 l/m 3,1 km/h (1 Bft) O-SO 112 14,6 C 16,2 C 5,0 km/h (1 Bft)
06.07.2012 07:37 15,7 C 94 % 0,0 l/m 3,5 km/h (1 Bft) O-SO 112 14,7 C 16,3 C 4,0 km/h (1 Bft)
06.07.2012 07:42 15,7 C 94 % 0,0 l/m 3,2 km/h (1 Bft) SO 135 14,7 C 16,4 C 3,5 km/h (1 Bft)
06.07.2012 07:47 15,7 C 94 % 0,0 l/m 2,4 km/h (1 Bft) NO 45 14,7 C 16,4 C 0,0 km/h (0 Bft)
06.07.2012 07:52 15,7 C 94 % 0,0 l/m 1,9 km/h (1 Bft) SO 135 14,7 C 16,5 C 5,3 km/h (1 Bft)
06.07.2012 07:57 15,7 C 94 % 0,0 l/m 2,3 km/h (1 Bft) O-SO 112 14,7 C 16,5 C 3,1 km/h (1 Bft)
06.07.2012 08:02 15,7 C 94 % 0,0 l/m 2,3 km/h (1 Bft) O-SO 112 14,7 C 16,5 C 3,1 km/h (1 Bft)
06.07.2012 08:05 15,7 C 94 % 0,0 l/m 2,3 km/h (1 Bft) O-SO 112 14,7 C 16,5 C 3,1 km/h (1 Bft)
06.07.2012 08:13 15,9 C 94 % 0,0 l/m 1,8 km/h (1 Bft) N-NO 22 14,9 C 16,2 C 0,0 km/h (0 Bft)
06.07.2012 08:15 15,9 C 94 % 0,0 l/m 1,8 km/h (1 Bft) N-NO 22 14,9 C 16,2 C 0,0 km/h (0 Bft)
06.07.2012 08:20 15,9 C 94 % 0,0 l/m 1,1 km/h (1 Bft) NO 45 14,9 C 16,2 C 2,9 km/h (1 Bft)
06.07.2012 08:25 16,1 C 93 % 0,0 l/m 1,0 km/h (0 Bft) N-NO 22 15,0 C 16,3 C 0,0 km/h (0 Bft)
06.07.2012 08:30 16,3 C 93 % 0,0 l/m 1,1 km/h (1 Bft) SO 135 15,2 C 16,5 C 3,4 km/h (1 Bft)
06.07.2012 08:35 16,4 C 93 % 0,0 l/m 2,4 km/h (1 Bft) O-SO 112 15,3 C 16,6 C 6,9 km/h (2 Bft)
06.07.2012 08:40 16,5 C 93 % 0,0 l/m 4,7 km/h (1 Bft) O 90 15,4 C 16,6 C 6,3 km/h (2 Bft)
06.07.2012 08:45 16,5 C 93 % 0,0 l/m 4,5 km/h (1 Bft) S 180 15,4 C 16,7 C 3,7 km/h (1 Bft)
06.07.2012 08:50 16,3 C 93 % 0,0 l/m 2,7 km/h (1 Bft) S 180 15,2 C 16,8 C 4,2 km/h (1 Bft)
06.07.2012 08:55 16,2 C 92 % 0,0 l/m 2,1 km/h (1 Bft) S 180 14,9 C 16,7 C 3,9 km/h (1 Bft)
06.07.2012 09:00 16,1 C 92 % 0,0 l/m 2,4 km/h (1 Bft) SO 135 14,8 C 16,5 C 3,4 km/h (1 Bft)
06.07.2012 09:05 16,1 C 92 % 0,0 l/m 2,1 km/h (1 Bft) O 90 14,8 C 16,4 C 2,1 km/h (1 Bft)
06.07.2012 09:10 15,9 C 93 % 0,0 l/m 0,8 km/h (0 Bft) N-NO 22 14,8 C 16,4 C 0,0 km/h (0 Bft)
06.07.2012 09:16 16,0 C 92 % 0,0 l/m 0,5 km/h (0 Bft) O-SO 112 14,7 C 16,4 C 0,0 km/h (0 Bft)
06.07.2012 09:20 16,0 C 92 % 0,0 l/m 0,5 km/h (0 Bft) O-SO 112 14,7 C 16,4 C 0,0 km/h (0 Bft)
06.07.2012 09:25 16,0 C 92 % 0,0 l/m 0,5 km/h (0 Bft) S 180 14,7 C 16,4 C 0,0 km/h (0 Bft)
06.07.2012 09:30 16,0 C 92 % 0,0 l/m 2,1 km/h (1 Bft) SO 135 14,7 C 16,3 C 3,1 km/h (1 Bft)
06.07.2012 09:35 15,9 C 93 % 0,0 l/m 2,7 km/h (1 Bft) S-SO 157 14,8 C 16,3 C 2,9 km/h (1 Bft)
06.07.2012 09:40 15,8 C 93 % 0,0 l/m 2,4 km/h (1 Bft) SO 135 14,7 C 16,3 C 1,6 km/h (1 Bft)
06.07.2012 09:45 15,9 C 93 % 0,0 l/m 1,8 km/h (1 Bft) NO 45 14,8 C 16,4 C 0,0 km/h (0 Bft)
06.07.2012 09:50 16,0 C 92 % 0,0 l/m 0,5 km/h (0 Bft) N-NO 22 14,7 C 16,5 C 0,0 km/h (0 Bft)
06.07.2012 09:55 16,2 C 92 % 0,0 l/m 0,2 km/h (0 Bft) N 360 14,9 C 16,6 C 0,0 km/h (0 Bft)
06.07.2012 10:00 16,7 C 92 % 0,0 l/m 0,3 km/h (0 Bft) SO 135 15,4 C 17,0 C 0,0 km/h (0 Bft)
06.07.2012 10:05 16,9 C 92 % 0,0 l/m 0,3 km/h (0 Bft) S-SW 202 15,6 C 17,4 C 0,0 km/h (0 Bft)
06.07.2012 10:10 17,0 C 92 % 0,0 l/m 0,3 km/h (0 Bft) S 180 15,7 C 17,9 C 2,1 km/h (1 Bft)
06.07.2012 10:15 17,2 C 92 % 0,0 l/m 0,6 km/h (0 Bft) S 180 15,9 C 18,1 C 0,0 km/h (0 Bft)
06.07.2012 10:20 17,4 C 92 % 0,0 l/m 0,6 km/h (0 Bft) S 180 16,1 C 18,4 C 2,1 km/h (1 Bft)
06.07.2012 10:25 17,4 C 91 % 0,0 l/m 0,6 km/h (0 Bft) W-SW 247 15,9 C 18,5 C 3,9 km/h (1 Bft)
06.07.2012 10:30 17,2 C 91 % 0,0 l/m 1,9 km/h (1 Bft) S 180 15,7 C 18,6 C 3,4 km/h (1 Bft)
06.07.2012 10:35 17,3 C 91 % 0,0 l/m 2,6 km/h (1 Bft) S 180 15,8 C 18,6 C 5,3 km/h (1 Bft)
06.07.2012 10:40 17,3 C 90 % 0,0 l/m 3,4 km/h (1 Bft) S 180 15,6 C 18,6 C 2,1 km/h (1 Bft)
06.07.2012 10:45 17,5 C 90 % 0,0 l/m 3,7 km/h (1 Bft) SO 135 15,8 C 18,6 C 5,1 km/h (1 Bft)
06.07.2012 10:50 17,7 C 90 % 0,0 l/m 4,3 km/h (1 Bft) S-SO 157 16,0 C 18,7 C 5,5 km/h (1 Bft)
06.07.2012 10:55 17,8 C 90 % 0,0 l/m 4,8 km/h (1 Bft) SO 135 16,1 C 18,8 C 9,0 km/h (2 Bft)
06.07.2012 11:00 17,9 C 89 % 0,0 l/m 4,7 km/h (1 Bft) O 90 16,1 C 19,1 C 3,9 km/h (1 Bft)
06.07.2012 11:05 18,0 C 89 % 0,0 l/m 4,7 km/h (1 Bft) S-SO 157 16,2 C 19,2 C 3,5 km/h (1 Bft)
06.07.2012 11:10 18,2 C 89 % 0,0 l/m 3,9 km/h (1 Bft) S 180 16,4 C 19,4 C 3,7 km/h (1 Bft)
06.07.2012 11:15 17,9 C 89 % 0,0 l/m 4,0 km/h (1 Bft) S 180 16,1 C 19,4 C 8,7 km/h (2 Bft)
06.07.2012 11:20 17,4 C 89 % 0,0 l/m 4,5 km/h (1 Bft) S-SW 202 15,6 C 18,8 C 4,2 km/h (1 Bft)
06.07.2012 11:25 17,3 C 89 % 0,0 l/m 4,8 km/h (1 Bft) S 180 15,5 C 18,4 C 4,3 km/h (1 Bft)
06.07.2012 11:30 17,1 C 89 % 0,0 l/m 4,5 km/h (1 Bft) S-SO 157 15,3 C 18,0 C 6,3 km/h (2 Bft)
06.07.2012 11:35 17,0 C 89 % 0,0 l/m 4,2 km/h (1 Bft) O 90 15,2 C 17,8 C 3,9 km/h (1 Bft)
06.07.2012 11:40 17,0 C 89 % 0,0 l/m 4,0 km/h (1 Bft) SO 135 15,2 C 17,7 C 6,9 km/h (2 Bft)
06.07.2012 11:45 17,0 C 89 % 0,0 l/m 4,3 km/h (1 Bft) O-SO 112 15,2 C 17,6 C 6,9 km/h (2 Bft)
06.07.2012 11:50 17,6 C 89 % 0,0 l/m 5,0 km/h (1 Bft) SO 135 15,8 C 18,0 C 2,3 km/h (1 Bft)
06.07.2012 11:55 18,3 C 89 % 0,0 l/m 5,1 km/h (1 Bft) SO 135 16,5 C 18,7 C 9,5 km/h (2 Bft)
06.07.2012 12:00 19,4 C 88 % 0,0 l/m 4,7 km/h (1 Bft) SO 135 17,4 C 20,1 C 6,6 km/h (2 Bft)
06.07.2012 12:05 19,7 C 87 % 0,0 l/m 4,5 km/h (1 Bft) S 180 17,5 C 21,1 C 8,4 km/h (2 Bft)
06.07.2012 12:10 19,6 C 86 % 0,0 l/m 5,1 km/h (1 Bft) O-SO 112 17,2 C 22,0 C 10,3 km/h (2 Bft)
06.07.2012 12:15 20,0 C 86 % 0,0 l/m 6,1 km/h (2 Bft) O-SO 112 17,6 C 21,7 C 10,8 km/h (2 Bft)
06.07.2012 12:20 21,5 C 85 % 0,0 l/m 6,9 km/h (2 Bft) SO 135 18,9 C 22,3 C 6,1 km/h (2 Bft)
06.07.2012 12:25 20,7 C 84 % 0,0 l/m 6,4 km/h (2 Bft) S-SW 202 17,9 C 22,7 C 3,9 km/h (1 Bft)
06.07.2012 12:30 20,5 C 85 % 0,0 l/m 5,6 km/h (1 Bft) S 180 17,9 C 22,6 C 3,4 km/h (1 Bft)
06.07.2012 12:35 20,9 C 85 % 0,0 l/m 4,7 km/h (1 Bft) S 180 18,3 C 22,8 C 5,6 km/h (1 Bft)
06.07.2012 12:40 19,6 C 86 % 0,0 l/m 4,3 km/h (1 Bft) SO 135 17,2 C 22,0 C 9,3 km/h (2 Bft)
06.07.2012 12:45 19,9 C 87 % 0,0 l/m 5,1 km/h (1 Bft) SO 135 17,7 C 21,4 C 4,2 km/h (1 Bft)
06.07.2012 12:50 21,3 C 86 % 0,0 l/m 4,7 km/h (1 Bft) S-SO 157 18,9 C 22,2 C 0,0 km/h (0 Bft)
06.07.2012 12:55 21,0 C 87 % 0,0 l/m 3,5 km/h (1 Bft) S 180 18,7 C 22,7 C 3,2 km/h (1 Bft)
06.07.2012 13:00 20,2 C 87 % 0,7 l/m 2,1 km/h (1 Bft) S 180 18,0 C 22,5 C 2,3 km/h (1 Bft)
06.07.2012 13:05 20,0 C 87 % 0,0 l/m 2,7 km/h (1 Bft) S 180 17,8 C 22,2 C 3,9 km/h (1 Bft)
06.07.2012 13:10 20,5 C 88 % 0,0 l/m 4,0 km/h (1 Bft) SO 135 18,4 C 21,6 C 4,7 km/h (1 Bft)
06.07.2012 13:15 20,5 C 88 % 0,0 l/m 4,2 km/h (1 Bft) S-SO 157 18,4 C 21,7 C 4,2 km/h (1 Bft)
06.07.2012 13:20 20,6 C 88 % 0,0 l/m 3,7 km/h (1 Bft) O-SO 112 18,5 C 21,8 C 3,7 km/h (1 Bft)
06.07.2012 13:25 21,2 C 88 % 0,0 l/m 3,4 km/h (1 Bft) S-SO 157 19,1 C 22,0 C 3,7 km/h (1 Bft)
06.07.2012 13:30 21,6 C 88 % 0,0 l/m 3,4 km/h (1 Bft) S 180 19,5 C 22,8 C 2,1 km/h (1 Bft)
06.07.2012 13:35 21,6 C 87 % 0,0 l/m 3,5 km/h (1 Bft) S 180 19,3 C 23,1 C 2,1 km/h (1 Bft)
06.07.2012 13:40 21,9 C 87 % 0,0 l/m 1,8 km/h (1 Bft) S 180 19,6 C 24,0 C 1,8 km/h (1 Bft)
06.07.2012 13:45 22,8 C 85 % 0,0 l/m 1,0 km/h (0 Bft) NO 45 20,1 C 24,6 C 2,9 km/h (1 Bft)
06.07.2012 13:50 23,4 C 82 % 0,0 l/m 2,3 km/h (1 Bft) O 90 20,1 C 25,7 C 3,9 km/h (1 Bft)
06.07.2012 13:55 23,3 C 80 % 0,0 l/m 3,1 km/h (1 Bft) S-SO 157 19,6 C 26,3 C 4,0 km/h (1 Bft)
06.07.2012 14:00 23,7 C 80 % 0,0 l/m 3,4 km/h (1 Bft) S-SO 157 20,0 C 26,1 C 5,3 km/h (1 Bft)
06.07.2012 14:05 23,7 C 76 % 0,0 l/m 3,2 km/h (1 Bft) S 180 19,2 C 26,3 C 2,7 km/h (1 Bft)
06.07.2012 14:10 23,0 C 76 % 0,0 l/m 3,4 km/h (1 Bft) SO 135 18,5 C 26,8 C 4,3 km/h (1 Bft)
06.07.2012 14:15 21,8 C 76 % 0,0 l/m 3,5 km/h (1 Bft) S 180 17,4 C 25,7 C 5,1 km/h (1 Bft)
06.07.2012 14:20 21,2 C 78 % 0,0 l/m 4,2 km/h (1 Bft) S 180 17,2 C 24,0 C 6,1 km/h (2 Bft)
06.07.2012 14:25 21,1 C 78 % 0,0 l/m 4,5 km/h (1 Bft) SO 135 17,1 C 23,3 C 6,6 km/h (2 Bft)
06.07.2012 14:30 21,0 C 78 % 0,0 l/m 4,3 km/h (1 Bft) SO 135 17,0 C 22,6 C 2,3 km/h (1 Bft)
06.07.2012 14:35 21,3 C 77 % 0,0 l/m 4,2 km/h (1 Bft) SO 135 17,1 C 22,4 C 3,4 km/h (1 Bft)
06.07.2012 14:40 21,5 C 76 % 0,0 l/m 3,1 km/h (1 Bft) S-SO 157 17,1 C 22,8 C 4,0 km/h (1 Bft)
06.07.2012 14:45 21,6 C 76 % 0,0 l/m 2,6 km/h (1 Bft) NW 315 17,2 C 23,1 C 2,6 km/h (1 Bft)
06.07.2012 14:50 22,1 C 76 % 0,0 l/m 1,9 km/h (1 Bft) SO 135 17,7 C 23,6 C 0,0 km/h (0 Bft)
06.07.2012 14:55 22,9 C 73 % 0,0 l/m 1,9 km/h (1 Bft) S 180 17,8 C 24,3 C 6,0 km/h (2 Bft)
06.07.2012 15:00 23,0 C 71 % 0,0 l/m 3,2 km/h (1 Bft) W-NW 292 17,4 C 24,8 C 3,7 km/h (1 Bft)
06.07.2012 15:05 24,0 C 65 % 0,0 l/m 3,9 km/h (1 Bft) S 180 17,0 C 25,6 C 4,5 km/h (1 Bft)
06.07.2012 15:10 22,6 C 67 % 0,0 l/m 3,9 km/h (1 Bft) S-SW 202 16,2 C 26,0 C 8,7 km/h (2 Bft)
06.07.2012 15:15 21,8 C 68 % 0,0 l/m 4,7 km/h (1 Bft) SO 135 15,6 C 24,9 C 5,5 km/h (1 Bft)
06.07.2012 15:20 21,2 C 68 % 0,0 l/m 6,0 km/h (2 Bft) S 180 15,1 C 23,2 C 7,7 km/h (2 Bft)
06.07.2012 15:25 21,0 C 68 % 0,0 l/m 5,6 km/h (1 Bft) SO 135 14,9 C 22,5 C 4,8 km/h (1 Bft)
06.07.2012 15:30 21,5 C 70 % 0,0 l/m 4,3 km/h (1 Bft) S-SO 157 15,8 C 22,2 C 3,7 km/h (1 Bft)
06.07.2012 15:35 23,3 C 67 % 0,0 l/m 3,4 km/h (1 Bft) SO 135 16,8 C 22,6 C 5,6 km/h (1 Bft)
06.07.2012 15:40 24,1 C 61 % 0,0 l/m 3,7 km/h (1 Bft) O-SO 112 16,1 C 24,0 C 2,9 km/h (1 Bft)
06.07.2012 15:45 24,5 C 59 % 0,0 l/m 3,7 km/h (1 Bft) O-SO 112 15,9 C 25,5 C 2,6 km/h (1 Bft)
06.07.2012 15:50 22,3 C 59 % 0,0 l/m 3,1 km/h (1 Bft) SO 135 13,9 C 25,9 C 4,3 km/h (1 Bft)
06.07.2012 15:55 21,6 C 63 % 0,0 l/m 3,2 km/h (1 Bft) N-NW 337 14,2 C 24,7 C 3,1 km/h (1 Bft)
06.07.2012 16:00 20,9 C 67 % 0,0 l/m 2,9 km/h (1 Bft) W-NW 292 14,5 C 23,1 C 0,0 km/h (0 Bft)
06.07.2012 16:05 21,6 C 67 % 0,0 l/m 1,6 km/h (1 Bft) S-SO 157 15,2 C 22,9 C 0,0 km/h (0 Bft)
06.07.2012 16:10 21,9 C 65 % 0,0 l/m 1,4 km/h (1 Bft) O-NO 67 15,0 C 23,3 C 2,1 km/h (1 Bft)
06.07.2012 16:15 21,5 C 65 % 0,0 l/m 3,2 km/h (1 Bft) S 180 14,6 C 23,1 C 4,8 km/h (1 Bft)
06.07.2012 16:20 21,1 C 66 % 0,0 l/m 3,9 km/h (1 Bft) S 180 14,5 C 22,4 C 4,2 km/h (1 Bft)
06.07.2012 16:25 20,9 C 67 % 0,0 l/m 3,7 km/h (1 Bft) W-SW 247 14,5 C 21,9 C 5,6 km/h (1 Bft)
06.07.2012 16:30 20,7 C 68 % 0,0 l/m 3,5 km/h (1 Bft) S 180 14,6 C 21,4 C 2,3 km/h (1 Bft)
06.07.2012 16:35 20,4 C 69 % 0,0 l/m 3,1 km/h (1 Bft) S 180 14,5 C 21,2 C 2,6 km/h (1 Bft)
06.07.2012 16:40 20,7 C 68 % 0,0 l/m 3,1 km/h (1 Bft) W-SW 247 14,6 C 21,1 C 4,7 km/h (1 Bft)
06.07.2012 16:45 20,7 C 68 % 0,0 l/m 4,2 km/h (1 Bft) S 180 14,6 C 21,1 C 7,2 km/h (2 Bft)
06.07.2012 16:50 20,7 C 68 % 0,0 l/m 4,0 km/h (1 Bft) O-NO 67 14,6 C 21,0 C 3,4 km/h (1 Bft)
06.07.2012 16:55 21,0 C 67 % 0,0 l/m 3,1 km/h (1 Bft) SW 225 14,6 C 21,2 C 1,9 km/h (1 Bft)
06.07.2012 17:00 21,1 C 66 % 0,0 l/m 2,6 km/h (1 Bft) S-SW 202 14,5 C 21,6 C 2,9 km/h (1 Bft)
06.07.2012 17:05 21,2 C 67 % 0,0 l/m 2,1 km/h (1 Bft) W-SW 247 14,8 C 21,8 C 1,6 km/h (1 Bft)
06.07.2012 17:10 21,3 C 67 % 0,0 l/m 2,4 km/h (1 Bft) W-SW 247 14,9 C 21,9 C 3,2 km/h (1 Bft)
06.07.2012 17:15 21,3 C 64 % 0,0 l/m 3,1 km/h (1 Bft) S 180 14,2 C 22,1 C 3,9 km/h (1 Bft)
06.07.2012 17:20 21,0 C 65 % 0,0 l/m 3,5 km/h (1 Bft) S-SW 202 14,2 C 22,1 C 4,0 km/h (1 Bft)
06.07.2012 17:25 20,8 C 66 % 0,0 l/m 3,5 km/h (1 Bft) S-SO 157 14,2 C 21,9 C 5,6 km/h (1 Bft)
06.07.2012 17:30 20,6 C 67 % 0,0 l/m 3,4 km/h (1 Bft) S-SW 202 14,3 C 21,5 C 4,7 km/h (1 Bft)
06.07.2012 17:35 20,3 C 67 % 0,0 l/m 4,0 km/h (1 Bft) S 180 14,0 C 21,2 C 3,9 km/h (1 Bft)
06.07.2012 17:40 20,2 C 68 % 0,0 l/m 3,4 km/h (1 Bft) S-SW 202 14,1 C 20,9 C 3,7 km/h (1 Bft)
06.07.2012 17:45 20,2 C 68 % 0,0 l/m 2,4 km/h (1 Bft) O-SO 112 14,1 C 20,8 C 2,3 km/h (1 Bft)
06.07.2012 17:50 20,2 C 70 % 0,0 l/m 1,8 km/h (1 Bft) W-SW 247 14,5 C 20,7 C 0,0 km/h (0 Bft)
06.07.2012 17:55 20,3 C 69 % 0,0 l/m 1,6 km/h (1 Bft) SW 225 14,4 C 20,7 C 3,4 km/h (1 Bft)
06.07.2012 18:00 20,5 C 68 % 0,0 l/m 2,4 km/h (1 Bft) S-SO 157 14,4 C 20,9 C 3,4 km/h (1 Bft)
06.07.2012 18:05 20,3 C 69 % 0,0 l/m 2,6 km/h (1 Bft) S 180 14,4 C 20,9 C 0,0 km/h (0 Bft)
06.07.2012 18:10 20,1 C 69 % 0,0 l/m 2,6 km/h (1 Bft) W 270 14,2 C 20,7 C 2,1 km/h (1 Bft)
06.07.2012 18:15 19,9 C 69 % 0,0 l/m 2,1 km/h (1 Bft) N 360 14,0 C 20,5 C 2,1 km/h (1 Bft)
06.07.2012 18:20 19,5 C 71 % 0,0 l/m 1,3 km/h (1 Bft) W-NW 292 14,1 C 20,3 C 2,4 km/h (1 Bft)
06.07.2012 18:25 19,5 C 71 % 0,0 l/m 1,0 km/h (0 Bft) W-SW 247 14,1 C 20,1 C 1,6 km/h (1 Bft)
06.07.2012 18:30 19,5 C 72 % 0,0 l/m 0,5 km/h (0 Bft) N-NO 22 14,3 C 20,0 C 0,0 km/h (0 Bft)
06.07.2012 18:35 19,3 C 72 % 0,0 l/m 0,2 km/h (0 Bft) NO 45 14,1 C 20,0 C 0,0 km/h (0 Bft)
06.07.2012 18:40 18,9 C 73 % 0,0 l/m 0,0 km/h (0 Bft) O-NO 67 13,9 C 19,7 C 0,0 km/h (0 Bft)
06.07.2012 18:45 18,6 C 75 % 0,0 l/m 0,0 km/h (0 Bft) N-NO 22 14,1 C 19,4 C 0,0 km/h (0 Bft)
06.07.2012 18:50 18,6 C 77 % 0,0 l/m 0,0 km/h (0 Bft) N-NO 22 14,5 C 19,1 C 0,0 km/h (0 Bft)
06.07.2012 18:55 18,4 C 78 % 0,0 l/m 0,0 km/h (0 Bft) N-NO 22 14,5 C 18,8 C 0,0 km/h (0 Bft)
06.07.2012 19:00 18,3 C 78 % 0,0 l/m 0,0 km/h (0 Bft) SO 135 14,4 C 18,6 C 0,0 km/h (0 Bft)
06.07.2012 19:05 18,2 C 79 % 0,0 l/m 1,4 km/h (1 Bft) SO 135 14,5 C 18,6 C 6,8 km/h (2 Bft)
06.07.2012 19:10 17,7 C 77 % 0,0 l/m 5,6 km/h (1 Bft) SO 135 13,6 C 18,1 C 15,3 km/h (3 Bft)
06.07.2012 19:15 17,5 C 76 % 0,0 l/m 8,9 km/h (2 Bft) SO 135 13,2 C 16,7 C 14,5 km/h (3 Bft)
06.07.2012 19:20 17,1 C 76 % 0,0 l/m 9,7 km/h (2 Bft) S 180 12,8 C 15,9 C 20,4 km/h (4 Bft)
06.07.2012 19:25 17,1 C 76 % 0,0 l/m 8,5 km/h (2 Bft) S-SO 157 12,8 C 16,2 C 8,2 km/h (2 Bft)
06.07.2012 19:30 16,9 C 76 % 0,0 l/m 7,4 km/h (2 Bft) SW 225 12,6 C 16,5 C 14,0 km/h (3 Bft)
06.07.2012 19:35 16,6 C 77 % 0,0 l/m 7,1 km/h (2 Bft) O-SO 112 12,5 C 16,4 C 8,2 km/h (2 Bft)
06.07.2012 19:40 16,4 C 78 % 0,0 l/m 6,8 km/h (2 Bft) SO 135 12,6 C 16,3 C 11,3 km/h (2 Bft)
06.07.2012 19:45 16,2 C 79 % 0,0 l/m 6,4 km/h (2 Bft) S-SO 157 12,6 C 16,3 C 12,9 km/h (3 Bft)
06.07.2012 19:50 16,1 C 80 % 0,0 l/m 5,5 km/h (1 Bft) O-SO 112 12,6 C 16,1 C 3,7 km/h (1 Bft)
06.07.2012 19:55 16,0 C 80 % 0,0 l/m 3,5 km/h (1 Bft) NO 45 12,5 C 16,0 C 0,0 km/h (0 Bft)
06.07.2012 20:00 15,9 C 83 % 0,0 l/m 1,8 km/h (1 Bft) O-SO 112 13,0 C 15,8 C 6,4 km/h (2 Bft)
06.07.2012 20:05 15,8 C 83 % 0,0 l/m 2,6 km/h (1 Bft) SO 135 12,9 C 15,8 C 3,5 km/h (1 Bft)
06.07.2012 20:10 15,9 C 83 % 0,0 l/m 5,5 km/h (1 Bft) SO 135 13,0 C 15,8 C 16,1 km/h (3 Bft)
06.07.2012 20:15 16,3 C 82 % 0,0 l/m 6,1 km/h (2 Bft) S-SO 157 13,2 C 15,8 C 6,1 km/h (2 Bft)
06.07.2012 20:20 16,2 C 82 % 0,0 l/m 5,6 km/h (1 Bft) NO 45 13,1 C 15,8 C 8,5 km/h (2 Bft)
06.07.2012 20:25 16,0 C 84 % 0,0 l/m 4,0 km/h (1 Bft) N-NO 22 13,3 C 15,7 C 5,6 km/h (1 Bft)
06.07.2012 20:30 15,6 C 86 % 0,0 l/m 2,7 km/h (1 Bft) SO 135 13,3 C 15,4 C 4,8 km/h (1 Bft)
06.07.2012 20:35 15,5 C 86 % 0,0 l/m 2,6 km/h (1 Bft) O 90 13,2 C 15,3 C 0,0 km/h (0 Bft)
06.07.2012 20:40 15,4 C 87 % 0,0 l/m 3,2 km/h (1 Bft) O-SO 112 13,2 C 15,2 C 1,9 km/h (1 Bft)
06.07.2012 20:45 15,4 C 87 % 0,0 l/m 2,9 km/h (1 Bft) S-SO 157 13,2 C 15,1 C 2,7 km/h (1 Bft)
06.07.2012 20:50 15,4 C 87 % 0,0 l/m 2,6 km/h (1 Bft) O 90 13,2 C 15,1 C 2,4 km/h (1 Bft)
06.07.2012 20:55 15,3 C 88 % 0,0 l/m 1,9 km/h (1 Bft) N 360 13,3 C 15,2 C 0,0 km/h (0 Bft)
06.07.2012 21:00 15,1 C 89 % 0,7 l/m 0,5 km/h (0 Bft) SO 135 13,3 C 15,0 C 0,0 km/h (0 Bft)
06.07.2012 21:05 15,0 C 89 % 0,0 l/m 0,2 km/h (0 Bft) NO 45 13,2 C 14,9 C 0,0 km/h (0 Bft)
06.07.2012 21:10 14,8 C 91 % 0,0 l/m 0,5 km/h (0 Bft) N-NO 22 13,3 C 14,8 C 1,6 km/h (1 Bft)
06.07.2012 21:15 14,8 C 91 % 0,0 l/m 0,6 km/h (0 Bft) NO 45 13,3 C 14,6 C 0,0 km/h (0 Bft)
06.07.2012 21:20 14,7 C 91 % 0,0 l/m 0,5 km/h (0 Bft) N 360 13,2 C 14,7 C 3,1 km/h (1 Bft)
06.07.2012 21:25 14,7 C 91 % 0,7 l/m 0,5 km/h (0 Bft) O-NO 67 13,2 C 14,6 C 0,0 km/h (0 Bft)
06.07.2012 21:30 14,6 C 92 % 0,7 l/m 1,1 km/h (1 Bft) N 360 13,3 C 14,6 C 3,2 km/h (1 Bft)
06.07.2012 21:35 14,5 C 92 % 0,0 l/m 1,9 km/h (1 Bft) N-NO 22 13,2 C 14,5 C 5,0 km/h (1 Bft)
06.07.2012 21:40 14,4 C 92 % 0,0 l/m 2,9 km/h (1 Bft) N 360 13,1 C 14,4 C 3,4 km/h (1 Bft)
06.07.2012 21:45 14,5 C 93 % 0,0 l/m 2,9 km/h (1 Bft) NO 45 13,4 C 14,4 C 6,1 km/h (2 Bft)
06.07.2012 21:50 14,6 C 93 % 0,0 l/m 2,3 km/h (1 Bft) S-SO 157 13,5 C 14,4 C 0,0 km/h (0 Bft)
06.07.2012 21:55 14,6 C 93 % 0,0 l/m 2,3 km/h (1 Bft) SO 135 13,5 C 14,4 C 2,3 km/h (1 Bft)
06.07.2012 22:00 14,4 C 93 % 0,0 l/m 1,3 km/h (1 Bft) N-NW 337 13,3 C 14,4 C 2,6 km/h (1 Bft)
06.07.2012 22:05 14,3 C 93 % 0,0 l/m 1,0 km/h (0 Bft) N 360 13,2 C 14,3 C 0,0 km/h (0 Bft)
06.07.2012 22:10 14,2 C 93 % 0,0 l/m 0,6 km/h (0 Bft) N 360 13,1 C 14,1 C 3,2 km/h (1 Bft)
06.07.2012 22:15 14,2 C 93 % 0,0 l/m 0,5 km/h (0 Bft) N-NO 22 13,1 C 14,1 C 0,0 km/h (0 Bft)
06.07.2012 22:20 14,1 C 93 % 0,0 l/m 0,5 km/h (0 Bft) SW 225 13,0 C 14,1 C 0,0 km/h (0 Bft)
06.07.2012 22:25 14,1 C 93 % 0,0 l/m 0,0 km/h (0 Bft) N 360 13,0 C 14,0 C 0,0 km/h (0 Bft)
06.07.2012 22:30 14,0 C 93 % 0,0 l/m 0,0 km/h (0 Bft) N-NO 22 12,9 C 13,9 C 1,6 km/h (1 Bft)
06.07.2012 22:35 14,1 C 93 % 0,0 l/m 0,6 km/h (0 Bft) N 360 13,0 C 13,9 C 3,2 km/h (1 Bft)
06.07.2012 22:40 14,2 C 93 % 0,0 l/m 0,8 km/h (0 Bft) N 360 13,1 C 14,0 C 0,0 km/h (0 Bft)
06.07.2012 22:45 14,2 C 93 % 0,0 l/m 0,5 km/h (0 Bft) NO 45 13,1 C 14,0 C 0,0 km/h (0 Bft)
06.07.2012 22:50 14,1 C 93 % 0,0 l/m 0,0 km/h (0 Bft) O-NO 67 13,0 C 14,0 C 0,0 km/h (0 Bft)
06.07.2012 22:55 14,1 C 93 % 0,0 l/m 0,0 km/h (0 Bft) N-NW 337 13,0 C 14,0 C 0,0 km/h (0 Bft)
06.07.2012 23:00 14,1 C 93 % 0,0 l/m 0,0 km/h (0 Bft) N-NO 22 13,0 C 13,9 C 0,0 km/h (0 Bft)
06.07.2012 23:05 14,1 C 93 % 0,0 l/m 0,0 km/h (0 Bft) N 360 13,0 C 14,0 C 0,0 km/h (0 Bft)
06.07.2012 23:10 14,2 C 93 % 0,0 l/m 0,0 km/h (0 Bft) NO 45 13,1 C 14,0 C 0,0 km/h (0 Bft)
06.07.2012 23:15 14,2 C 93 % 0,0 l/m 0,0 km/h (0 Bft) NO 45 13,1 C 14,1 C 0,0 km/h (0 Bft)
06.07.2012 23:20 14,2 C 93 % 0,0 l/m 0,0 km/h (0 Bft) NO 45 13,1 C 14,1 C 0,0 km/h (0 Bft)
06.07.2012 23:25 14,2 C 93 % 0,0 l/m 0,0 km/h (0 Bft) N-NO 22 13,1 C 14,0 C 0,0 km/h (0 Bft)
06.07.2012 23:30 14,2 C 93 % 0,0 l/m 0,0 km/h (0 Bft) N 360 13,1 C 14,1 C 0,0 km/h (0 Bft)
06.07.2012 23:35 14,2 C 93 % 0,0 l/m 0,0 km/h (0 Bft) NW 315 13,1 C 14,0 C 0,0 km/h (0 Bft)
06.07.2012 23:40 14,1 C 93 % 0,0 l/m 0,2 km/h (0 Bft) N-NO 22 13,0 C 14,1 C 0,0 km/h (0 Bft)
06.07.2012 23:45 14,1 C 93 % 0,0 l/m 0,2 km/h (0 Bft) O-SO 112 13,0 C 14,0 C 0,0 km/h (0 Bft)
06.07.2012 23:50 14,2 C 93 % 0,0 l/m 0,0 km/h (0 Bft) O-SO 112 13,1 C 14,0 C 0,0 km/h (0 Bft)
06.07.2012 23:55 14,2 C 94 % 0,0 l/m 0,0 km/h (0 Bft) O-SO 112 13,2 C 14,1 C 0,0 km/h (0 Bft)
_ Min-Zeit 04:52 15:50 - 23:55 - - 04:52 05:22 23:55
Minimum _ 11,6 C 59 % - 0,0 km/h (0 Bft) - - 10,8 C 11,6 C 0,0 km/h (0 Bft)
_ Max-Zeit 15:45 05:52 21:25 19:20 - - 13:50 14:10 19:20
Maximum _ 24,5 C 95 % 0,7 l/m 9,7 km/h
S (2 Bft)
- - 20,1 C 26,8 C 20,4 km/h
S (4 Bft)
Durchschnitt _ 16,7 C 87 % #2,7 l/m 2,3 km/h (1 Bft) SO - 14,3 C 17,2 C 3,0 km/h (1 Bft)